This demonstration page uses our WeatherBlox Daily Observations layout. Learn more.

39.29038, -76.61219

Hourly Observations for June 2, 2019

Temp ( °F °C ) Dew Point ( °F °C ) Humidity (%) Winds ( mph kmh ) Pressure ( in mb ) Visibility ( mi km ) Precip ( " mm )
12:54 am 00:54 undefined 71 21.7 57 13.9 61 61 undefined N/A 29.83 1010 N/A 0 0
1:54 am 01:54 undefined 70 21.1 57 13.9 64 64 undefined N/A 29.8 1009 N/A 0 0
2:54 am 02:54 undefined 70 21.1 57 13.9 64 64 undefined N/A 29.77 1008 N/A 0 0
3:54 am 03:54 undefined 68 20 57 13.9 68 68 undefined N/A 29.77 1008 N/A 0 0
4:54 am 04:54 undefined 67 19.4 57 13.9 71 71 undefined N/A 29.74 1007 N/A 0 0
5:54 am 05:54 undefined 67 19.4 57 13.9 71 71 undefined N/A 29.74 1007 N/A 0 0
6:54 am 06:54 undefined 69 20.6 57 13.9 66 66 undefined N/A 29.74 1007 N/A 0 0
7:54 am 07:54 undefined 72 22.2 59 15 64 64 undefined N/A 29.77 1008 N/A 0 0
8:54 am 08:54 undefined 74 23.3 59 15 60 60 undefined N/A 29.77 1008 N/A 0 0
9:54 am 09:54 undefined 78 25.6 61 16.1 56 56 undefined N/A 29.77 1008 N/A 0 0
10:54 am 10:54 undefined 80 26.7 61 16.1 52 52 undefined N/A 29.74 1007 N/A 0 0
11:54 am 11:54 undefined 83 28.3 60 15.6 46 46 undefined N/A 29.74 1007 N/A 0 0
12:54 pm 12:54 undefined 84 28.9 61 16.1 46 46 undefined N/A 29.74 1007 N/A 0 0
1:54 pm 13:54 undefined 85 29.4 61 16.1 45 45 undefined N/A 29.71 1006 N/A 0 0
2:54 pm 14:54 undefined 84 28.9 58 14.4 41 41 undefined N/A 29.71 1006 N/A 0 0
3:54 pm 15:54 undefined 86 30 61 16.1 43 43 undefined N/A 29.68 1005 N/A 0 0
4:54 pm 16:54 undefined 84 28.9 59 15 43 43 undefined N/A 29.68 1005 N/A 0 0
5:54 pm 17:54 undefined 82 27.8 60 15.6 47 47 undefined N/A 29.68 1005 N/A 0 0
6:54 pm 18:54 undefined 71 21.7 58 14.4 63 63 undefined N/A 29.74 1007 N/A 0 0
7:54 pm 19:54 undefined 71 21.7 61 16.1 71 71 undefined N/A 29.74 1007 N/A 0.01 0.254
8:54 pm 20:54 undefined 72 22.2 62 16.7 71 71 undefined N/A 29.74 1007 N/A 0 0
9:54 pm 21:54 undefined 71 21.7 61 16.1 71 71 undefined N/A 29.77 1008 N/A 0 0
10:54 pm 22:54 undefined 71 21.7 62 16.7 73 73 undefined N/A 29.8 1009 N/A 0 0
11:54 pm 23:54 undefined 71 21.7 60 15.6 68 68 undefined N/A 29.8 1009 N/A 0 0

Powered by AerisWeather